sat.trackr.live / text

‹ back to catalog

STARLINK-3960

NORAD 52659 · 2022-053D

PAYLOAD ACTIVE UNKNOWN

§ Identity

Operator
Country
US
Launch date
2022-05-18
Launch site
AFETR
Launch vehicle
Mass (kg)
RCS (m²)

Purposes: comms

External: N2YO · Heavens-Above · Gunter

§ Orbital elements

Epoch: 2026-05-25T01:35:04.231680Z

Period
95.44 min
Inclination
53.2140°
Eccentricity
0.0000970
Mean motion
15.08839312 rev/d
Perigee alt
539.1 km
Apogee alt
540.4 km
Semi-major
6,917.9 km
B*
2.8077e-5
RAAN
171.2018°
Arg perigee
65.6193°
Mean anomaly
294.4900°
Rev number
22,275

§ Raw data

STARLINK-39601 52659U 22053D   26145.06602120  .00000159  00000+0  28077-4 0  99962 52659  53.2140 171.2018 0000970  65.6193 294.4900 15.08839312222756

JSON: /api/v1/satellites/52659 · /tle

For live sub-satellite position, see the globe view (requires WebGL).

§ Visibility from observer

Set your observer location to see the next 7 days of passes ≥ 10°. The values pass through the URL so the page stays shareable.

No JS? Fill the form by hand. The geolocation button needs JavaScript.